Location: Baix
(44.7118°N, 4.7648°E)
Time: 01:38:56
(UTC+00:00)

Vanguard 3 - Pass Details

Date: 02 December 2020
Orbit: 508 x 3262 km, 33.3° (Epoch: 19 January)

Event Time Altitude Azimuth Distance (km) Brightness Sun altitude
Rises 21:41:45 0° 246° (WSW) 2,598 - -58.2°
Reaches altitude 10° 21:44:25 10° 223° (SW) 1,742 - -58.6°
Maximum altitude 21:46:53 17° 181° (S) 1,471 - -59.0°
Drops below altitude 10° 21:49:42 10° 141° (SE) 2,034 - -59.4°
Sets 21:53:13 0° 121° (ESE) 3,285 - -59.8°
